Showing default

QIANFAN-41, 62242

Orbit data source: Space-Track

QIANFAN-41, 62242 is a Chinese payload satellite in LEO that was launched on Thu, 05 Dec 2024 UTC via a CHANG ZHENG 6A launch vehicle from the Taiyaun Space Center, China (TSC). Payload-class satellites include a variety of spacecraft equipped with specific instruments for various scientific and technological missions. These include communications satellites like Starlink; space stations such as the ISS; scientific satellites like the Hubble; Earth observation satellites from companies like Planet Labs, Umbra, and HawkEye 360; GPS; miniature CubeSats for education and research; and military/defense satellites.

Loading next visibility...
Identifier
62242, 2024-232F
Orbit
LEO
Country
Flag of CNCN / PRC
Related business
Manufacturer
SECM
Mission
Operational Commercial Communications
Bus & Motor
QIANFAN, Unknown motor
Mass
267 kg wet, ~267 kg dry
Launch date (UTC)
2024-12-05 (1 year ago)
Launch vehicle
CHANG ZHENG 6A
Launch site
Taiyaun Space Center, China (TSC)
Object type
Payload
Rocket body
Debris
Shape & HBR
Box + 1 Pan, 5.0 m
Radar Cross Section
13.200 m², Large (>1 m²)

Expand to show TLE details & history
Last TLE update: 8 hours ago

TLE from 8 hours ago
0 QIANFAN-41
1 62242U 24232F   26126.77833294  .00000157  00000-0  22426-3 0  9991
2 62242  89.0112  26.6090 0015205 125.7522 234.5045 13.51006124118836
Epoch: 2026-05-06T18:40Z
TLE epoch observation values (Epoch: 2026-05-06T18:40:47.966Z)
Latitude
-0.00006°
Longitude
-118.2248°
Altitude
1,078.1 km
Speed
7.31 km/s
True Right ascension
01h 46m 26s
True Declination
0° 00' 00"
Sunlit
Object was in daylight at epoch
Visualization orbit readout
Latitude
Unknown
Longitude
Unknown
Altitude
Unknown
Speed
Unknown
Apparent Right ascension
Unknown
Apparent Declination
Unknown
Sunlit
N/A
Visualization observer readout
Local Sidereal Time
10:25:48
Azimuth
Unknown
Elevation
Unknown
Doppler factor
Unknown
Orbital elements
Apogee altitude
1,076.928 km
Perigee altitude
1,054.292 km
Semi-major axis
7,443.747 km
Eccentricity
0.00152
Inclination
89.0112°
RAAN
26.609°
Arg. of periapsis
125.7522°
True anomaly
234.3628°
Mean anomaly
234.5045°
Eccentric anomaly
234.43363°
Mean motion
3.37953 °/min
Orbital period
106.52 mins
BSTAR
0.00022426
Loading maneuver chart data...
Computing Atmospheric mass density...
Loading historical data...
Loading historical data...
Loading historical data...
Loading historical data...
Loading historical data...
Loading historical data...
Loading historical data...

Documentation

Showing up to 5 results
|